Regional Weather Roundup
Issued by NWS Cleveland, OH

Home | Current Version | Previous Version | Text Only | Print | Product List | Glossary Off
Versions: 1 2 3 4 5 6 7 8 9 10 11 12 13 14 15 16 17 18 19 20 21 22 23 24 25 26 27 28 29 30 31 32 33 34 35 36 37 38 39 40 41 42 43 44 45 46 47 48 49 50

271
ASUS41 KCLE 110600
RWRCLE
OHIO REGIONAL WEATHER ROUNDUP
NATIONAL WEATHER SERVICE WILMINGTON, OH
100 AM EST THU FEB 11 2016

NOTE: "FAIR" INDICATES FEW OR NO CLOUDS BELOW 12,000 FEET WITH NO
SIGNIFICANT WEATHER AND/OR OBSTRUCTIONS TO VISIBILITY.

OHZ001>008-015>018-024>027-034-035-043-044-110700-
   NORTHWEST OHIO

CITY           SKY/WX    TMP DP  RH WIND       PRES   REMARKS
DEFIANCE       CLOUDY    16   8  71 VRB3      30.09S
FINDLAY        FAIR      13   7  77 W10       30.06R WCI   0
TOLEDO EXPRESS FAIR      12   2  64 W7        30.06R WCI   1
TOLEDO EXEC    FAIR      14   3  61 W10       30.07R WCI   1
LIMA           CLOUDY    14   6  70 W14       30.07R WCI  -1
$$

OHZ009>014-019>023-028>033-038-089-110700-
   NORTHEAST OHIO

CITY           SKY/WX    TMP DP  RH WIND       PRES   REMARKS
CLE-HOPKINS    LGT SNOW  16   5  62 NW18G25   30.01R BLWGSNOWWCI   0
CLE-LAKEFRONT  FLURRIES  19   6  57 NW26G35   29.98R WCI   1
CUY CO. ARPT   NOT AVBL
LORAIN-ELYRIA  LGT SNOW  16   6  65 NW18      30.00R WCI   0
ASHTABULA      CLOUDY    15   2  56 NW14G22   29.92S WCI   0
AKRON-CANTON   LGT SNOW  14   9  80 W16       29.94S VSB 1   WCI  -2
WOOSTER        LGT SNOW  14   9  80 NW14      29.98R WCI  -1
MANSFIELD      LGT SNOW  13  10  88 W9G18     29.98S FOG     WCI   1
YOUNGSTOWN     LGT SNOW  15   9  76 NW13      29.91R VSB 1   WCI   1
$$

OHZ042-051>053-060>062-070>072-077>081-110700-
  SOUTHWEST OHIO

CITY           SKY/WX    TMP DP  RH WIND       PRES   REMARKS
CINC-COVINGTON FLURRIES  14   5  67 W6        30.14S WCI   5
CINC-LUNKEN    CLOUDY    17   6  62 W5        30.19S WCI  10
HAMILTON       CLOUDY    14   6  70 W5        30.17R WCI   6
DAYTON         NOT AVBL
WRIGHT-PAT AFB NOT AVBL
DAYTON GENERAL FAIR      13   3  64 W5        30.11R WCI   5
WILMINGTON     FAIR      12   4  70 W6        30.10S WCI   3
$$

OHZ036-037-039>041-045>050-054>059-063>069-073>076-082>088-110700-
  CENTRAL AND SOUTHEAST OHIO

CITY           SKY/WX    TMP DP  RH WIND       PRES   REMARKS
COLUMBUS       CLOUDY    13   4  67 W16       30.08R WCI  -3
OSU AIRPORT    CLOUDY    12   5  73 W10       30.08R WCI  -1
BOLTON FIELD   NOT AVBL
RICKENBACK AFB NOT AVBL
NEWARK         CLOUDY    13   4  67 MISG      30.06S
MARION         MOCLDY    15   6  67 W15G22    30.04S WCI   0
LANCASTER      FAIR       9   1  70 W6        30.09R WCI  -1
ZANESVILLE     CLOUDY    14   4  64 W10       30.06R WCI   1
NEW PHILLY     CLOUDY    15   8  73 W12G20    30.01S WCI   2
$$




USA.gov is the U.S. government's official web portal to all federal, state and local government web resources and services.